Location: Newark
(42.9260°N, 89.3850°W)
Time: 14:49:18
(UTC+00:00)

STARLINK 1060 - Pass Details

Date: 12 December 2019
Orbit: 476 x 478 km, 53.0° (Epoch: 24 January)

Event Time Altitude Azimuth Distance (km) Brightness Sun altitude
Exits shadow 11:45:12 11° 217° (SW) 1,447 5.6 -16.5°
Drops below altitude 10° 11:45:40 10° 209° (SSW) 1,508 5.7 -16.4°
Sets 11:48:53 0° 176° (S) 2,380 7.2 -15.9°
